This demonstration page uses our WeatherBlox Daily Observations layout. Learn more.

Left ArrowRight Arrow

34.16533, -84.80231

Hourly Observations for October 11, 2020

Temp ( °F °C ) Dew Point ( °F °C ) Humidity (%) Winds ( mph kmh ) Pressure ( in mb ) Visibility ( mi km ) Precip ( " mm )
12:03 am 00:03 Cloudy 72 22.2 70 21.1 94 94 Calm 29.80 1009 10 16 0.00 0.00
12:53 am 00:53 Partly Cloudy 72 22.2 70 21.1 94 94 Calm 29.77 1008 10 16 0.00 0.00
1:53 am 01:53 Cloudy 73 22.8 70 21.1 90 90 SSE 6 9 29.75 1008 10 16 0.00 0.00
2:53 am 02:53 Mostly Cloudy 73 22.8 69 20.6 87 87 SSE 3 6 29.75 1008 10 16 0.00 0.00
3:53 am 03:53 Clear 72 22.2 68 20 87 87 SE 5 7 29.74 1007 10 16 0.00 0.00
4:53 am 04:53 Cloudy 72 22.2 69 20.6 91 91 SE 3 6 29.73 1007 10 16 0.00 0.00
5:53 am 05:53 Cloudy 72 22.2 69 20.6 91 91 Calm 29.72 1007 10 16 0.01 0.25
6:49 am 06:49 Cloudy 72 22 68 20 88 88 Calm 29.74 1007 10 16 0.00 0.00
6:53 am 06:53 Cloudy 71 21.7 68 20 90 90 Calm 29.73 1007 10 16 0.00 0.00
7:29 am 07:29 Cloudy with Light Rain 72 22.2 68 20 87 87 ESE 3 6 29.75 1007 6 10 0.01 0.25
7:48 am 07:48 Cloudy with Light Rain 72 22 68 20 88 88 Calm 29.75 1007 6 10 0.02 0.51
7:53 am 07:53 Cloudy with Light Rain 71 21.7 68 20 90 90 Calm 29.73 1007 4 6 0.03 0.76
8:07 am 08:07 Cloudy with Rain 71 21.7 68 20 90 90 ESE 6 9 29.74 1007 2 3 0.04 1.02
8:21 am 08:21 Cloudy with Rain 71 21.7 68 20 90 90 VRB 3 6 29.76 1008 2 3 0.14 3.56
8:29 am 08:29 Cloudy with Light Rain 71 21.7 68 20 90 90 VRB 3 6 29.76 1008 1 1 0.18 4.57
8:33 am 08:33 Cloudy with Light Rain 71 21.7 68 20 90 90 VRB 3 6 29.76 1008 2 3 0.18 4.57
8:40 am 08:40 Cloudy with Light Rain 71 21.7 68 20 90 90 Calm 29.76 1008 8 13 0.18 4.57
8:53 am 08:53 Cloudy 71 21.7 68 20 90 90 Calm 29.75 1007 10 16 0.18 4.57
9:53 am 09:53 Cloudy 72 22.2 68 20 87 87 S 3 6 29.76 1008 10 16 0.00 0.00
10:03 am 10:03 Cloudy 72 22.2 68 20 87 87 SSE 3 6 29.78 1008 10 16 0.00 0.00
10:29 am 10:29 Cloudy 73 22.8 68 20 84 84 SSW 3 6 29.78 1008 10 16 0.00 0.00
10:51 am 10:51 Cloudy 73 23 68 20 83 83 S 3 6 29.77 1008 10 16 0.00 0.00
10:53 am 10:53 Cloudy 73 22.8 68 20 84 84 VRB 3 6 29.77 1008 10 16 0.00 0.00
11:53 am 11:53 Cloudy 73 22.8 68 20 84 84 VRB 3 6 29.78 1008 10 16 0.00 0.00
12:53 pm 12:53 Cloudy 75 23.9 67 19.4 76 76 S 7 11 29.76 1008 10 16 0.00 0.00
1:10 pm 13:10 Cloudy 76 24.4 67 19.4 74 74 S 6 9 29.76 1008 10 16 0.00 0.00
1:24 pm 13:24 Cloudy 75 23.9 67 19.4 76 76 S 7 11 29.76 1008 10 16 0.00 0.00
1:44 pm 13:44 Cloudy with Light Rain 75 23.9 67 19.4 76 76 S 7 11 29.76 1008 9 14 0.01 0.25
1:53 pm 13:53 Cloudy with Rain 72 22.2 67 19.4 84 84 S 6 9 29.75 1008 3 4 0.04 1.02
2:02 pm 14:02 Cloudy 73 22.8 68 20 84 84 Calm 29.77 1008 10 16 0.00 0.00
2:30 pm 14:30 Cloudy 75 23.9 69 20.6 82 82 Calm 29.75 1008 10 16 0.00 0.00
2:45 pm 14:45 Cloudy 75 23.9 68 20 79 79 VRB 3 6 29.75 1008 10 16 0.00 0.00
2:53 pm 14:53 Cloudy with Light Rain 75 23.9 69 20.6 82 82 Calm 29.74 1007 8 13 0.00 0.00
3:53 pm 15:53 Cloudy 76 24.4 68 20 77 77 VRB 3 6 29.74 1007 10 16 0.00 0.00
4:25 pm 16:25 Cloudy with Light Rain 74 23.3 68 20 82 82 VRB 5 7 29.75 1008 6 10 0.01 0.25
4:37 pm 16:37 Cloudy with Light Rain 73 22.8 68 20 84 84 Calm 29.76 1008 3 5 0.02 0.51
4:53 pm 16:53 Cloudy 75 23.9 69 20.6 82 82 Calm 29.75 1007 10 16 0.02 0.51
5:46 pm 17:46 Cloudy 75 23.9 69 20.6 82 82 Calm 29.76 1008 10 16 0.00 0.00
5:53 pm 17:53 Cloudy with Light Rain 74 23.3 68 20 82 82 Calm 29.76 1008 4 6 0.01 0.25
6:18 pm 18:18 Cloudy 74 23.3 68 20 82 82 Calm 29.77 1008 10 16 0.01 0.25
6:44 pm 18:44 Cloudy with Rain 72 22.2 70 21.1 94 94 Calm 29.79 1009 2 3 0.04 1.02
6:53 pm 18:53 Cloudy with Light Rain 72 22.2 69 20.6 91 91 Calm 29.78 1008 3 4 0.05 1.27
7:00 pm 19:00 Cloudy 72 22.2 69 20.6 91 91 Calm 29.79 1009 10 16 0.00 0.00
7:53 pm 19:53 Partly Cloudy 71 21.7 68 20 90 90 Calm 29.79 1009 10 16 0.00 0.00
8:53 pm 20:53 Mostly Cloudy 71 21.7 68 20 90 90 Calm 29.81 1009 10 16 0.00 0.00
9:53 pm 21:53 Cloudy 71 21.7 68 20 90 90 Calm 29.82 1010 10 16 0.00 0.00
10:44 pm 22:44 Cloudy 71 21.7 68 20 90 90 Calm 29.84 1010 10 16 0.00 0.00
10:53 pm 22:53 Cloudy 71 21.7 68 20 90 90 Calm 29.83 1010 10 16 0.00 0.00
11:04 pm 23:04 Cloudy 71 21.7 68 20 90 90 Calm 29.84 1010 10 16 0.00 0.00
11:41 pm 23:41 Cloudy 71 21.7 68 20 90 90 Calm 29.84 1010 10 16 0.00 0.00
11:53 pm 23:53 Cloudy 71 21.7 68 20 90 90 Calm 29.82 1010 10 16 0.00 0.00

Powered by AerisWeather